Time,TemperatureF,DewpointF,PressureIn,WindDirection,WindDirectionDegrees,WindSpeedMPH,WindSpeedGustMPH,Humidity,HourlyPrecipIn,Conditions,Clouds,dailyrainin,SoftwareType,DateUTC
2013-08-18 00:00:00,65.8,63.0,30.10,NE,44,0.0,0.0,91,0.00,,,0.00,weatherlink.com 1.10,2013-08-18 05:00:00,
2013-08-18 00:15:00,65.9,63.0,30.11,NE,44,0.0,0.0,91,0.00,,,0.00,weatherlink.com 1.10,2013-08-18 05:15:00,
2013-08-18 00:30:00,65.6,63.0,30.11,NE,44,0.0,0.0,91,0.00,,,0.00,weatherlink.com 1.10,2013-08-18 05:30:00,
2013-08-18 00:45:00,65.4,63.0,30.10,NE,44,0.0,0.0,91,0.00,,,0.00,weatherlink.com 1.10,2013-08-18 05:45:00,
2013-08-18 01:00:00,65.1,63.0,30.10,NE,44,0.0,0.0,91,0.00,,,0.00,weatherlink.com 1.10,2013-08-18 06:00:00,
2013-08-18 01:15:00,64.6,62.0,30.10,NE,44,0.0,0.0,91,0.00,,,0.00,weatherlink.com 1.10,2013-08-18 06:15:00,
2013-08-18 01:30:00,64.2,62.0,30.10,NE,44,0.0,0.0,91,0.00,,,0.00,weatherlink.com 1.10,2013-08-18 06:30:00,
2013-08-18 01:45:00,64.1,62.0,30.10,NE,44,0.0,0.0,92,0.00,,,0.00,weatherlink.com 1.10,2013-08-18 06:45:00,
2013-08-18 02:00:00,63.9,62.0,30.10,NE,44,0.0,0.0,92,0.00,,,0.00,weatherlink.com 1.10,2013-08-18 07:00:00,
2013-08-18 02:15:00,63.5,61.0,30.10,NE,44,0.0,1.0,92,0.00,,,0.00,weatherlink.com 1.10,2013-08-18 07:15:00,
2013-08-18 02:30:00,63.6,62.0,30.10,NE,44,0.0,0.0,93,0.00,,,0.00,weatherlink.com 1.10,2013-08-18 07:30:00,
2013-08-18 02:45:00,63.2,61.0,30.10,NE,44,0.0,0.0,93,0.00,,,0.00,weatherlink.com 1.10,2013-08-18 07:45:00,
2013-08-18 03:00:00,63.3,62.0,30.09,NE,44,0.0,0.0,94,0.00,,,0.00,weatherlink.com 1.10,2013-08-18 08:00:00,
2013-08-18 03:15:00,62.9,61.0,30.09,NE,44,0.0,0.0,93,0.00,,,0.00,weatherlink.com 1.10,2013-08-18 08:15:00,
2013-08-18 03:30:00,62.7,61.0,30.09,NE,44,0.0,0.0,94,0.00,,,0.00,weatherlink.com 1.10,2013-08-18 08:30:00,
2013-08-18 03:45:00,62.5,61.0,30.09,NE,44,0.0,0.0,94,0.00,,,0.00,weatherlink.com 1.10,2013-08-18 08:45:00,
2013-08-18 04:00:00,62.4,61.0,30.09,NE,44,0.0,0.0,94,0.00,,,0.00,weatherlink.com 1.10,2013-08-18 09:00:00,
2013-08-18 04:15:00,62.0,60.0,30.09,NE,44,0.0,0.0,94,0.00,,,0.00,weatherlink.com 1.10,2013-08-18 09:15:00,
2013-08-18 04:30:00,61.8,60.0,30.09,NE,44,0.0,0.0,94,0.00,,,0.00,weatherlink.com 1.10,2013-08-18 09:30:00,
2013-08-18 04:45:00,61.8,60.0,30.09,NE,44,0.0,0.0,94,0.00,,,0.00,weatherlink.com 1.10,2013-08-18 09:45:00,
2013-08-18 05:00:00,61.4,60.0,30.10,NE,44,0.0,0.0,95,0.00,,,0.00,weatherlink.com 1.10,2013-08-18 10:00:00,
2013-08-18 05:15:00,61.3,60.0,30.10,NE,44,0.0,0.0,95,0.00,,,0.00,weatherlink.com 1.10,2013-08-18 10:15:00,
2013-08-18 05:30:00,61.0,60.0,30.10,NE,44,0.0,0.0,95,0.00,,,0.00,weatherlink.com 1.10,2013-08-18 10:30:00,
2013-08-18 05:45:00,60.9,60.0,30.10,NE,44,0.0,0.0,95,0.00,,,0.00,weatherlink.com 1.10,2013-08-18 10:45:00,
2013-08-18 06:00:00,60.8,59.0,30.10,NE,44,0.0,0.0,95,0.00,,,0.00,weatherlink.com 1.10,2013-08-18 11:00:00,
2013-08-18 06:15:00,60.6,59.0,30.11,NE,44,0.0,0.0,95,0.00,,,0.00,weatherlink.com 1.10,2013-08-18 11:15:00,
2013-08-18 06:30:00,60.6,59.0,30.11,NE,44,0.0,0.0,95,0.00,,,0.00,weatherlink.com 1.10,2013-08-18 11:30:00,
2013-08-18 06:45:00,60.5,59.0,30.12,NE,44,0.0,0.0,95,0.00,,,0.00,weatherlink.com 1.10,2013-08-18 11:45:00,
2013-08-18 07:00:00,60.6,60.0,30.12,NE,44,0.0,0.0,96,0.00,,,0.00,weatherlink.com 1.10,2013-08-18 12:00:00,
2013-08-18 07:15:00,60.7,60.0,30.13,NE,44,0.0,0.0,96,0.00,,,0.00,weatherlink.com 1.10,2013-08-18 12:15:00,
2013-08-18 07:30:00,60.8,60.0,30.13,NE,44,0.0,0.0,96,0.00,,,0.00,weatherlink.com 1.10,2013-08-18 12:30:00,
2013-08-18 07:45:00,62.0,61.0,30.13,NE,44,0.0,0.0,97,0.00,,,0.00,weatherlink.com 1.10,2013-08-18 12:45:00,
2013-08-18 08:00:00,64.1,63.0,30.13,NE,44,0.0,1.0,97,0.00,,,0.00,weatherlink.com 1.10,2013-08-18 13:00:00,
2013-08-18 08:15:00,65.8,64.0,30.14,NE,44,0.0,1.0,95,0.00,,,0.00,weatherlink.com 1.10,2013-08-18 13:15:00,
2013-08-18 08:30:00,67.3,65.0,30.14,NE,44,1.0,1.0,91,0.00,,,0.00,weatherlink.com 1.10,2013-08-18 13:30:00,
2013-08-18 08:45:00,68.6,65.0,30.14,NE,44,2.0,2.0,88,0.00,,,0.00,weatherlink.com 1.10,2013-08-18 13:45:00,
2013-08-18 09:00:00,68.9,65.0,30.15,ESE,121,1.0,4.0,88,0.00,,,0.00,weatherlink.com 1.10,2013-08-18 14:00:00,
2013-08-18 09:15:00,70.2,66.0,30.15,SSE,150,2.0,5.0,87,0.00,,,0.00,weatherlink.com 1.10,2013-08-18 14:15:00,
2013-08-18 09:30:00,71.3,67.0,30.15,SSE,152,3.0,4.0,85,0.00,,,0.00,weatherlink.com 1.10,2013-08-18 14:30:00,
2013-08-18 09:45:00,73.0,67.0,30.16,SE,137,8.0,10.0,82,0.00,,,0.00,weatherlink.com 1.10,2013-08-18 14:45:00,
2013-08-18 10:00:00,73.9,68.0,30.16,SE,142,4.0,8.0,81,0.00,,,0.00,weatherlink.com 1.10,2013-08-18 15:00:00,
2013-08-18 10:15:00,74.9,68.0,30.16,SE,140,2.0,7.0,78,0.00,,,0.00,weatherlink.com 1.10,2013-08-18 15:15:00,
2013-08-18 10:30:00,75.8,68.0,30.16,ESE,118,2.0,7.0,77,0.00,,,0.00,weatherlink.com 1.10,2013-08-18 15:30:00,
2013-08-18 10:45:00,76.7,68.0,30.16,SSW,197,2.0,8.0,75,0.00,,,0.00,weatherlink.com 1.10,2013-08-18 15:45:00,
2013-08-18 11:00:00,77.4,68.0,30.15,SSE,150,4.0,6.0,73,0.00,,,0.00,weatherlink.com 1.10,2013-08-18 16:00:00,
2013-08-18 11:15:00,78.3,68.0,30.15,SSW,192,7.0,7.0,71,0.00,,,0.00,weatherlink.com 1.10,2013-08-18 16:15:00,
2013-08-18 11:30:00,78.6,68.0,30.15,SE,142,2.0,8.0,69,0.00,,,0.00,weatherlink.com 1.10,2013-08-18 16:30:00,
2013-08-18 11:45:00,80.0,69.0,30.15,South,184,2.0,7.0,68,0.00,,,0.00,weatherlink.com 1.10,2013-08-18 16:45:00,
2013-08-18 12:00:00,79.1,67.0,30.14,SSE,157,4.0,8.0,67,0.00,,,0.00,weatherlink.com 1.10,2013-08-18 17:00:00,
2013-08-18 12:15:00,78.5,66.0,30.14,SSE,157,0.0,7.0,66,0.00,,,0.00,weatherlink.com 1.10,2013-08-18 17:15:00,
2013-08-18 12:30:00,79.5,67.0,30.14,SE,130,5.0,7.0,66,0.00,,,0.00,weatherlink.com 1.10,2013-08-18 17:30:00,
2013-08-18 12:45:00,79.7,67.0,30.13,South,190,1.0,9.0,66,0.00,,,0.00,weatherlink.com 1.10,2013-08-18 17:45:00,
2013-08-18 13:00:00,79.8,66.0,30.13,ESE,109,0.0,7.0,63,0.00,,,0.00,weatherlink.com 1.10,2013-08-18 18:00:00,
2013-08-18 13:15:00,81.0,64.0,30.12,SE,140,6.0,7.0,57,0.00,,,0.00,weatherlink.com 1.10,2013-08-18 18:15:00,
2013-08-18 13:31:00,81.2,66.0,30.12,SSE,167,4.0,10.0,61,0.00,,,0.00,weatherlink.com 1.10,2013-08-18 18:31:00,
2013-08-18 13:46:00,82.2,66.0,30.11,NE,42,5.0,8.0,58,0.00,,,0.00,weatherlink.com 1.10,2013-08-18 18:46:00,
2013-08-18 14:01:00,82.0,65.0,30.11,SE,142,3.0,6.0,57,0.00,,,0.00,weatherlink.com 1.10,2013-08-18 19:01:00,
2013-08-18 14:16:00,82.4,66.0,30.11,SE,138,5.0,10.0,57,0.00,,,0.00,weatherlink.com 1.10,2013-08-18 19:16:00,
2013-08-18 14:31:00,82.8,66.0,30.10,SE,138,6.0,9.0,57,0.00,,,0.00,weatherlink.com 1.10,2013-08-18 19:31:00,
2013-08-18 14:46:00,82.6,65.0,30.10,SE,139,4.0,8.0,55,0.00,,,0.00,weatherlink.com 1.10,2013-08-18 19:46:00,
2013-08-18 15:01:00,83.1,66.0,30.09,NNE,28,8.0,9.0,56,0.00,,,0.00,weatherlink.com 1.10,2013-08-18 20:01:00,
2013-08-18 15:16:00,82.7,65.0,30.09,SE,137,5.0,10.0,55,0.00,,,0.00,weatherlink.com 1.10,2013-08-18 20:16:00,
2013-08-18 15:31:00,82.9,64.0,30.09,SE,142,2.0,7.0,53,0.00,,,0.00,weatherlink.com 1.10,2013-08-18 20:31:00,
2013-08-18 15:46:00,83.5,64.0,30.08,SE,137,5.0,8.0,52,0.00,,,0.00,weatherlink.com 1.10,2013-08-18 20:46:00,
2013-08-18 16:01:00,83.9,64.0,30.08,SE,131,5.0,9.0,51,0.00,,,0.00,weatherlink.com 1.10,2013-08-18 21:01:00,
2013-08-18 16:16:00,83.4,63.0,30.07,SE,138,9.0,9.0,51,0.00,,,0.00,weatherlink.com 1.10,2013-08-18 21:16:00,
2013-08-18 16:31:00,83.6,64.0,30.07,SE,135,4.0,7.0,52,0.00,,,0.00,weatherlink.com 1.10,2013-08-18 21:31:00,
2013-08-18 16:46:00,83.8,64.0,30.07,ESE,105,1.0,8.0,51,0.00,,,0.00,weatherlink.com 1.10,2013-08-18 21:46:00,
2013-08-18 17:01:00,83.9,64.0,30.07,SSE,165,3.0,6.0,51,0.00,,,0.00,weatherlink.com 1.10,2013-08-18 22:01:00,
2013-08-18 17:16:00,83.8,63.0,30.07,SE,144,4.0,9.0,50,0.00,,,0.00,weatherlink.com 1.10,2013-08-18 22:16:00,
2013-08-18 17:31:00,83.9,64.0,30.07,SE,140,4.0,7.0,52,0.00,,,0.00,weatherlink.com 1.10,2013-08-18 22:31:00,
2013-08-18 17:46:00,83.9,64.0,30.06,SE,128,2.0,6.0,51,0.00,,,0.00,weatherlink.com 1.10,2013-08-18 22:46:00,
2013-08-18 18:01:00,84.0,64.0,30.06,ESE,105,3.0,7.0,51,0.00,,,0.00,weatherlink.com 1.10,2013-08-18 23:01:00,
2013-08-18 18:16:00,83.8,64.0,30.05,SE,134,1.0,6.0,51,0.00,,,0.00,weatherlink.com 1.10,2013-08-18 23:16:00,
2013-08-18 18:31:00,83.3,64.0,30.05,SE,142,3.0,7.0,52,0.00,,,0.00,weatherlink.com 1.10,2013-08-18 23:31:00,
2013-08-18 18:46:00,83.1,64.0,30.05,SE,138,2.0,7.0,53,0.00,,,0.00,weatherlink.com 1.10,2013-08-18 23:46:00,
2013-08-18 19:01:00,82.5,66.0,30.05,SE,140,3.0,6.0,57,0.00,,,0.00,weatherlink.com 1.10,2013-08-19 00:01:00,
2013-08-18 19:16:00,81.8,66.0,30.05,SE,140,2.0,4.0,59,0.00,,,0.00,weatherlink.com 1.10,2013-08-19 00:16:00,
2013-08-18 19:31:00,81.3,66.0,30.05,SE,140,2.0,4.0,60,0.00,,,0.00,weatherlink.com 1.10,2013-08-19 00:31:00,
2013-08-18 19:46:00,80.7,66.0,30.05,SE,140,0.0,3.0,62,0.00,,,0.00,weatherlink.com 1.10,2013-08-19 00:46:00,
2013-08-18 20:01:00,79.4,69.0,30.05,SE,140,0.0,1.0,70,0.00,,,0.00,weatherlink.com 1.10,2013-08-19 01:01:00,
2013-08-18 20:16:00,77.4,69.0,30.05,SE,140,0.0,0.0,74,0.00,,,0.00,weatherlink.com 1.10,2013-08-19 01:16:00,
2013-08-18 20:31:00,75.2,68.0,30.05,SE,140,0.0,1.0,77,0.00,,,0.00,weatherlink.com 1.10,2013-08-19 01:31:00,
2013-08-18 20:46:00,73.9,67.0,30.06,SE,140,0.0,0.0,80,0.00,,,0.00,weatherlink.com 1.10,2013-08-19 01:46:00,
2013-08-18 21:02:00,72.9,67.0,30.06,SE,140,0.0,0.0,82,0.00,,,0.00,weatherlink.com 1.10,2013-08-19 02:02:00,
2013-08-18 21:17:00,72.4,67.0,30.07,SE,140,0.0,0.0,83,0.00,,,0.00,weatherlink.com 1.10,2013-08-19 02:17:00,
2013-08-18 21:32:00,71.6,67.0,30.07,SE,140,0.0,0.0,85,0.00,,,0.00,weatherlink.com 1.10,2013-08-19 02:32:00,
2013-08-18 21:47:00,71.0,66.0,30.08,SE,140,0.0,0.0,85,0.00,,,0.00,weatherlink.com 1.10,2013-08-19 02:47:00,
2013-08-18 22:02:00,70.7,67.0,30.08,SE,140,0.0,0.0,87,0.00,,,0.00,weatherlink.com 1.10,2013-08-19 03:02:00,
2013-08-18 22:17:00,69.8,66.0,30.08,SE,140,0.0,0.0,87,0.00,,,0.00,weatherlink.com 1.10,2013-08-19 03:17:00,
2013-08-18 22:32:00,69.5,66.0,30.08,SE,140,0.0,0.0,89,0.00,,,0.00,weatherlink.com 1.10,2013-08-19 03:32:00,
2013-08-18 22:47:00,69.0,66.0,30.08,SE,140,0.0,0.0,90,0.00,,,0.00,weatherlink.com 1.10,2013-08-19 03:47:00,
2013-08-18 23:02:00,68.8,66.0,30.08,SE,140,0.0,0.0,90,0.00,,,0.00,weatherlink.com 1.10,2013-08-19 04:02:00,
2013-08-18 23:17:00,68.2,66.0,30.09,SE,140,0.0,0.0,91,0.00,,,0.00,weatherlink.com 1.10,2013-08-19 04:17:00,
2013-08-18 23:32:00,67.9,65.0,30.09,SE,140,0.0,0.0,91,0.00,,,0.00,weatherlink.com 1.10,2013-08-19 04:32:00,
2013-08-18 23:47:00,67.6,65.0,30.09,SE,140,0.0,0.0,91,0.00,,,0.00,weatherlink.com 1.10,2013-08-19 04:47:00,